This is the latest recevied weather packets stored in our database for station/object N1ICS-1. If no packets are shown the sender has not sent any weather packets the latest 10 day(s).
| Time | Temp. | Humidity | Pressure | Rain* | Wind** | Luminosity | Snow |
|---|---|---|---|---|---|---|---|
| 1777319101 | 22.22° C | 64% | 1014 hPa | 0 mm | - | 90 W/m² | - |
| 1777318802 | 22.78° C | 64% | 1014.1 hPa | 0 mm | - | 100 W/m² | - |
| 1777318502 | 22.22° C | 64% | 1014 hPa | 0 mm | - | 112 W/m² | - |
| 1777318202 | 22.78° C | 65% | 1014 hPa | 0 mm | - | 97 W/m² | - |
| 1777317901 | 22.22° C | 66% | 1014.1 hPa | 0 mm | - | 87 W/m² | - |
| 1777317602 | 22.78° C | 66% | 1014.1 hPa | 0 mm | - | 117 W/m² | - |
| 1777317301 | 22.78° C | 64% | 1014 hPa | 0 mm | - | 145 W/m² | - |
| 1777317002 | 22.78° C | 64% | 1013.8 hPa | 0 mm | - | 180 W/m² | - |
| 1777316701 | 22.78° C | 65% | 1013.8 hPa | 0 mm | - | 187 W/m² | - |
| 1777316402 | 22.78° C | 63% | 1014 hPa | 0 mm | - | 211 W/m² | - |
| 1777316102 | 23.33° C | 65% | 1013.8 hPa | 0 mm | - | 199 W/m² | - |
| 1777315802 | 23.33° C | 64% | 1014 hPa | 0 mm | - | 202 W/m² | - |
| 1777315502 | 23.33° C | 64% | 1013.9 hPa | 0 mm | - | 232 W/m² | - |
| 1777315202 | 23.33° C | 64% | 1013.9 hPa | 0 mm | - | 282 W/m² | - |
| 1777314901 | 23.33° C | 62% | 1014.2 hPa | 0 mm | - | 342 W/m² | - |
| 1777314602 | 23.33° C | 61% | 1014.4 hPa | 0 mm | - | 398 W/m² | - |
| 1777314302 | 23.33° C | 64% | 1014.5 hPa | 0 mm | - | 431 W/m² | - |
| 1777314002 | 23.33° C | 63% | 1014.7 hPa | 0 mm | - | 448 W/m² | - |
| 1777313701 | 23.33° C | 64% | 1014.9 hPa | 0 mm | - | 494 W/m² | - |
| 1777313402 | 23.33° C | 62% | 1015 hPa | 0 mm | - | 529 W/m² | - |
| 1777313102 | 23.33° C | 63% | 1014.9 hPa | 0 mm | - | 561 W/m² | - |
| 1777312802 | 23.33° C | 62% | 1015.1 hPa | 0 mm | - | 508 W/m² | - |
| 1777312502 | 23.33° C | 62% | 1015 hPa | 0 mm | - | 564 W/m² | - |
| 1777312202 | 23.89° C | 61% | 1015.2 hPa | 0 mm | - | 691 W/m² | - |
| 1777311902 | 23.33° C | 63% | 1015.4 hPa | 0 mm | - | 616 W/m² | - |
* Rain latest hour (hover to see other rain measurements)
** Current wind speed in m/s (hover to see current wind gust speed)